Dewpoint
53 47 49 50 49 44 39 40 25 34 28 24 20 22 22 27 33 26 25 27 25 28 30 33 34 33 28 32 23 22 23 18 22 17 25 46 57 59 61 61 61 61 64 63 65 66 67 67 67 67 67 68 68 68 68 68 69 69 68 68 68 68 69 69 69 69 69 69 69 69 69 69 69 69 69 69 69 69 69 69 69 69 69 70 70 70 70 69 69 70 69 69 69 69 69 68 69
48 47 48 49 43 42 37 35 30 25 27 21 22 20 29 28 28 26 23 26 28 29 33 31 33 33 30 28 28 29 26 29 29 35 47 54 57 57 59 60 61 59 63 64 65 65 66 67 66 67 67 68 67 67 68 68 69 68 67 67 67 67 68 68 68 68 68 69 69 69 69 69 69 69 69 69 69 69 69 69 69 69 69 70 69 70 69 69 69 69 69 69 69 69 69 68 69
47 47 40 40 41 37 36 33 26 25 24 18 21 22 32 27 23 23 25 25 25 27 30 29 31 30 32 30 24 25 27 39 31 43 45 52 47 48 60 62 61 61 64 65 65 65 65 65 66 66 67 67 67 67 67 68 67 67 67 67 67 67 68 67 68 68 68 68 68 68 68 69 68 68 69 69 69 69 70 69 69 69 69 69 69 69 69 69 69 69 69 69 69 69 69 69 69
51 49 43 41 33 36 32 29 28 23 22 21 20 26 28 24 21 26 33 36 32 30 29 26 26 28 25 22 22 28 27 35 34 38 38 40 40 57 62 63 62 61 62 66 65 65 65 65 65 65 65 65 67 66 67 68 68 67 67 67 67 67 67 67 67 68 68 67 67 68 68 68 68 69 68 68 68 68 68 68 68 69 68 68 69 69 69 69 69 69 69 69 69 69 69 68 68
43 48 44 38 36 36 33 32 27 24 17 21 20 26 23 23 24 27 31 32 33 33 28 26 24 27 27 26 27 23 27 33 39 41 45 54 58 60 64 64 61 60 62 62 62 64 65 64 64 65 64 64 66 67 66 67 67 67 67 67 66 66 67 67 67 67 67 67 67 67 67 67 67 67 67 68 68 68 68 68 68 68 68 69 68 68 69 69 69 69 69 68 69 69 69 68 69
41 39 42 38 32 38 31 29 28 23 21 25 22 22 24 25 23 27 27 30 30 32 30 26 23 26 24 26 29 26 33 29 47 42 49 55 62 63 64 63 59 58 60 61 61 62 63 64 64 64 64 64 66 67 66 67 67 67 67 67 67 66 66 66 67 66 67 67 67 67 67 67 67 67 67 67 68 67 68 67 68 68 68 68 69 69 68 69 69 68 69 69 68 68 68 69 69
41 37 40 39 38 38 28 22 23 20 21 24 22 22 27 30 31 32 29 33 33 35 36 32 30 29 29 27 32 37 37 46 44 50 53 63 65 63 64 60 59 60 60 60 61 61 65 63 63 64 63 65 66 66 64 65 66 67 65 65 66 66 66 66 66 66 67 67 67 67 67 67 67 67 67 67 67 67 67 67 67 67 68 68 68 68 69 68 68 68 68 68 68 68 68 68 68
47 40 41 31 32 32 29 26 24 24 25 26 26 26 28 34 36 32 34 35 35 25 37 35 36 29 25 32 25 49 40 40 47 59 61 61 64 63 63 59 58 59 60 60 61 61 62 62 63 64 64 65 66 65 63 64 64 64 64 64 65 66 66 66 66 66 66 66 67 66 66 67 67 66 66 67 67 66 66 67 67 67 67 68 68 68 68 68 68 68 68 69 69 68 68 68 68
40 40 45 39 31 34 25 24 22 31 28 30 28 30 38 32 32 37 38 35 37 37 35 35 40 32 34 33 28 44 40 48 45 55 58 61 62 63 62 59 56 60 62 59 60 62 62 62 62 63 64 65 65 64 63 63 63 63 63 64 64 65 65 66 66 66 66 66 66 66 66 66 66 66 67 67 67 67 67 67 66 67 66 67 68 68 68 68 67 68 68 68 68 68 68 68 68
38 38 32 33 33 23 26 24 26 24 29 31 30 27 26 27 30 32 37 39 40 41 40 42 38 32 32 34 35 37 42 56 57 56 59 62 63 62 62 62 61 62 61 60 60 61 62 61 61 62 63 65 64 64 63 63 63 64 64 64 64 65 65 66 65 65 66 66 66 66 66 66 66 66 67 67 66 67 67 67 66 66 66 67 67 67 67 67 67 67 68 68 68 68 68 68 68
32 41 40 33 31 27 25 20 21 28 28 29 29 28 29 32 32 31 33 35 42 38 40 45 39 38 34 36 33 49 50 53 55 55 62 62 64 62 58 62 61 63 59 62 61 61 61 61 60 61 62 63 65 64 65 64 63 64 64 64 64 65 65 65 65 65 66 66 65 65 65 65 65 65 65 65 66 65 65 65 65 65 65 66 66 66 66 66 67 67 67 67 67 67 67 67 67
31 36 37 29 27 25 20 23 27 26 30 32 29 29 33 33 32 29 35 31 39 39 37 42 40 41 41 37 36 45 51 50 53 57 61 62 59 61 60 58 62 61 63 63 62 60 61 62 61 60 61 62 63 63 64 64 64 63 64 64 64 64 65 65 65 65 65 65 65 64 64 64 64 64 64 64 64 64 64 64 64 64 64 64 65 65 65 66 66 65 65 65 66 67 67 67 67
35 39 31 28 25 30 27 29 25 31 29 30 27 30 31 30 28 27 31 34 37 37 36 42 45 46 37 39 41 46 48 58 56 58 60 59 59 59 61 57 62 62 62 62 61 62 63 61 61 61 61 60 61 61 62 63 64 64 65 64 64 64 64 64 64 64 64 63 63 63 63 63 63 64 64 63 63 63 64 63 63 64 64 64 64 64 64 64 65 65 64 64 65 65 65 64 65
35 39 36 27 34 29 30 27 30 29 23 28 27 34 35 31 29 28 32 31 27 31 43 46 42 44 41 40 37 39 43 57 60 60 58 61 60 60 61 58 61 61 62 61 60 61 62 61 60 62 62 62 63 61 59 59 60 62 63 64 64 64 64 63 63 62 62 62 62 62 62 62 63 63 63 63 62 62 63 62 62 64 64 64 64 64 63 64 64 64 64 64 64 64 64 64 65
37 40 35 35 29 32 31 27 26 28 25 29 33 31 29 30 30 30 28 27 27 32 38 48 42 40 34 39 35 39 46 55 60 60 60 61 61 60 62 61 61 61 60 59 60 60 60 62 61 61 62 62 62 61 61 63 58 60 60 61 62 62 62 62 61 61 60 60 61 61 61 61 60 61 61 61 61 61 61 61 61 62 63 63 63 63 63 63 64 64 63 64 64 64 63 63 63
39 38 37 33 28 31 29 30 32 30 27 29 30 31 30 30 29 29 29 28 28 30 38 29 41 33 43 42 40 44 48 53 58 60 58 60 60 60 59 59 58 58 59 60 58 60 60 60 61 60 61 62 62 61 62 61 59 57 58 59 60 60 60 59 58 59 58 59 59 59 59 62 60 61 59 60 58 59 59 58 59 61 62 63 63 63 63 62 64 64 64 63 63 62 62 62 62
40 41 34 33 28 32 30 28 31 22 30 31 31 31 31 31 31 29 30 30 29 28 28 30 35 45 38 40 40 50 51 54 57 61 60 58 56 55 57 56 56 56 60 58 59 58 60 59 60 60 61 61 62 62 62 62 61 57 57 57 56 57 58 58 57 57 57 57 58 58 59 61 61 61 61 61 59 60 57 57 58 60 62 63 63 63 63 63 63 63 62 62 61 61 61 61 62
40 36 34 30 30 31 31 30 32 33 32 33 33 32 31 32 30 30 31 29 29 29 32 30 30 40 41 37 47 51 54 51 53 52 53 55 56 51 52 52 53 51 54 55 57 58 58 59 60 59 60 61 61 62 62 61 61 59 61 61 61 59 57 57 60 60 57 61 56 59 60 60 60 60 61 58 61 59 58 57 58 60 61 62 62 62 62 62 61 61 61 61 60 60 60 62 60
35 35 34 27 31 33 33 34 35 34 33 35 32 32 31 30 31 31 30 28 28 28 28 29 31 31 33 42 45 45 47 49 50 50 48 51 52 53 51 49 52 51 53 54 55 57 57 58 60 60 60 60 61 60 60 60 60 60 60 60 60 57 58 59 60 59 60 60 60 60 59 59 59 60 59 57 57 55 57 57 57 59 59 60 60 61 61 61 60 60 60 60 60 60 61 59 59
34 33 29 30 34 34 34 36 37 37 37 33 33 33 32 32 33 33 31 29 29 28 28 29 29 30 31 34 39 42 48 48 52 50 50 49 51 51 51 51 49 52 52 52 53 57 56 57 58 59 60 60 60 60 60 59 59 59 59 59 59 59 59 60 60 60 60 60 59 59 59 59 60 59 54 53 54 59 59 56 56 57 57 58 58 61 60 59 60 60 61 61 60 59 59 58 58
32 32 29 30 31 31 31 33 37 37 37 35 34 34 32 32 32 32 32 30 29 28 29 30 29 29 30 31 33 39 43 41 47 53 51 49 50 51 49 47 43 45 52 54 53 54 54 55 56 57 59 59 60 59 59 59 58 59 59 59 59 59 59 59 59 59 59 59 59 58 59 59 59 59 60 59 59 59 59 59 59 59 58 59 57 59 59 60 60 60 60 60 59 59 58 58 58
35 28 31 33 33 31 33 33 37 38 39 38 37 35 33 33 33 33 32 31 29 29 30 32 32 32 32 32 32 35 37 41 40 43 48 49 48 48 49 49 49 50 53 50 50 50 53 52 54 56 58 59 59 59 58 59 59 58 58 58 59 59 59 58 58 57 57 58 58 58 58 59 59 58 59 59 59 58 58 57 58 57 58 57 57 58 57 58 59 59 59 58 57 57 58 58 58
29 30 32 32 31 31 33 33 36 39 39 38 36 35 35 34 34 33 33 32 32 33 33 33 34 33 32 33 33 33 36 36 38 39 41 46 49 49 46 42 40 44 51 50 50 50 50 51 54 56 56 58 59 59 59 58 58 57 58 58 58 58 57 57 56 56 57 58 58 58 58 58 58 58 59 59 58 57 57 57 56 56 57 56 55 56 57 56 57 57 57 58 59 60 59 58 58
35 31 34 33 35 33 34 35 36 36 39 38 37 36 34 34 32 33 34 33 33 33 32 32 32 32 33 32 33 33 33 34 34 37 39 40 44 45 44 44 42 44 50 50 50 51 52 51 52 55 56 57 59 58 58 57 57 58 58 57 58 56 56 56 56 56 56 56 57 57 57 58 57 57 58 57 57 57 57 57 56 56 56 55 55 55 55 54 55 56 57 57 57 58 58 58 57
33 32 34 34 35 36 37 37 36 37 39 38 38 35 33 33 32 30 27 28 29 30 31 30 30 31 31 31 31 31 31 32 32 35 35 36 39 42 43 42 42 44 46 47 49 50 51 50 51 53 55 56 57 58 57 57 57 57 57 57 57 55 56 55 55 56 55 55 55 56 57 56 56 56 57 56 56 57 57 57 55 55 56 56 55 54 54 54 54 54 54 55 56 56 57 57 56
34 34 36 37 37 37 36 36 35 35 34 36 35 32 31 29 29 28 28 29 30 29 29 29 30 30 30 29 30 30 30 30 31 33 33 34 37 36 36 36 38 40 42 43 48 50 50 47 51 52 54 55 57 57 57 56 57 57 57 57 56 55 55 55 55 52 54 54 54 56 56 56 55 55 55 55 55 56 56 56 55 55 56 56 56 53 52 53 53 53 53 54 54 54 54 55 54
38 37 37 37 36 35 35 34 31 30 31 31 30 30 29 29 29 26 27 25 26 30 30 30 29 29 29 29 29 29 28 29 28 29 30 33 34 34 33 33 35 37 38 41 45 49 51 45 51 52 54 56 56 56 57 56 57 57 56 56 55 55 55 54 53 53 53 54 54 54 55 55 55 54 54 54 54 54 55 55 54 53 54 54 54 54 54 53 52 52 53 51 52 52 52 53 54
37 38 37 35 33 34 32 32 31 31 29 29 29 28 27 27 28 25 22 23 26 27 29 26 26 26 26 26 27 28 28 28 29 29 28 29 29 29 30 32 32 34 38 40 44 48 48 46 50 53 54 55 55 56 56 55 56 56 55 55 54 54 54 52 52 52 52 52 53 53 53 53 53 53 54 54 54 53 53 53 53 53 52 52 52 52 52 52 51 52 54 54 53 52 51 50 51
38 38 33 31 32 31 28 26 29 30 25 28 27 25 21 23 26 26 24 24 25 25 25 25 26 26 27 27 27 27 27 27 28 28 28 29 30 29 29 30 28 30 34 38 41 49 47 46 50 52 54 55 55 55 55 55 55 55 55 54 53 53 51 51 50 50 50 52 51 50 50 51 52 52 52 52 52 52 52 52 51 51 51 51 51 53 53 52 51 51 51 51 51 51 50 50 52
37 34 35 31 27 25 28 29 28 28 25 28 27 22 19 21 21 21 23 24 24 24 23 23 24 24 26 27 27 27 28 29 29 30 31 30 30 29 29 29 29 30 31 38 44 47 47 49 52 53 54 54 55 55 55 55 54 55 54 53 52 50 49 49 48 48 48 47 50 48 49 49 50 50 50 51 51 51 51 51 50 50 50 50 50 50 49 50 49 50 50 49 48 49 48 48 47
32 30 32 30 24 20 27 29 28 26 28 29 28 23 19 19 21 24 26 24 25 24 23 23 23 24 24 26 25 25 25 27 26 28 29 30 29 29 28 28 27 30 32 36 42 45 46 48 52 53 54 54 55 55 54 54 54 54 53 52 50 50 48 48 47 47 46 46 46 46 47 47 48 49 49 49 49 49 49 49 49 48 49 49 48 48 48 48 49 48 48 48 48 47 47 46 47
33 24 19 30 26 22 26 30 29 27 28 30 28 26 23 22 24 25 26 25 24 23 24 26 27 27 28 28 27 28 28 29 30 30 30 30 30 29 29 28 28 30 31 34 39 43 46 48 52 53 54 54 54 54 54 53 53 53 52 48 48 49 47 46 46 45 45 44 44 45 45 45 46 47 47 47 47 47 46 46 46 47 48 47 47 47 47 47 47 47 47 48 46 45 45 45 45
32 27 24 24 27 26 27 29 29 31 30 30 29 26 26 26 25 25 26 27 28 28 27 29 28 29 29 29 29 29 30 31 31 31 30 30 30 29 31 31 34 33 34 34 38 43 45 50 52 53 53 54 54 53 52 53 51 50 49 50 48 47 46 45 45 44 44 43 43 43 43 44 45 45 45 46 46 45 45 45 44 46 46 46 45 45 45 46 47 46 44 44 46 43 44 45 44
23 31 27 28 27 27 26 28 30 32 31 30 31 29 27 27 27 28 29 30 30 29 28 28 29 29 29 30 30 30 30 30 30 31 31 30 30 31 32 37 38 39 38 39 39 42 46 51 53 53 53 53 52 51 51 50 49 47 47 48 47 45 45 43 43 43 42 42 41 41 42 42 43 44 44 45 45 45 45 44 43 44 45 44 44 44 43 44 45 45 43 42 42 42 41 43 43
23 26 27 26 27 28 27 28 28 30 32 31 30 29 29 28 28 28 28 29 30 30 30 29 29 29 30 30 30 30 30 30 29 30 30 31 32 34 40 43 42 41 41 42 43 44 48 51 52 52 52 51 50 50 50 49 48 47 46 45 43 42 42 42 42 41 41 40 40 41 41 41 42 43 43 44 43 42 42 43 44 43 43 42 42 42 42 43 44 44 44 42 42 41 41 42 42
30 29 30 29 28 27 28 28 30 31 31 31 29 29 28 27 28 29 29 29 29 29 30 30 30 30 29 30 30 29 30 29 31 32 34 33 35 39 41 42 42 43 42 43 45 48 49 50 51 51 50 50 49 49 48 49 46 43 42 41 41 40 40 40 40 39 40 40 40 40 40 40 41 41 42 43 42 41 41 42 42 41 41 41 41 41 40 41 42 43 43 44 42 40 39 40 41
32 32 32 29 28 28 29 30 31 32 31 29 29 29 28 29 29 29 29 30 29 29 29 29 30 30 29 29 29 30 30 29 32 38 37 38 40 43 44 43 43 43 44 44 46 48 49 50 50 49 49 48 48 48 47 44 44 43 43 42 41 38 38 37 37 37 37 39 40 40 40 39 40 40 41 42 41 39 39 40 40 40 39 39 39 39 40 40 41 41 40 40 41 39 38 38 39
33 32 31 28 29 27 28 29 30 32 31 28 29 28 28 28 28 28 29 29 29 29 28 27 27 27 28 29 29 30 30 32 33 35 37 38 40 44 45 44 43 42 43 44 46 48 49 49 49 49 48 48 48 47 45 45 45 44 42 41 39 38 37 36 35 34 37 38 37 37 37 40 40 39 38 38 38 39 38 37 38 38 37 37 37 37 37 37 39 40 40 37 39 38 37 37 38
32 31 30 29 28 29 29 30 30 30 31 29 29 28 28 28 28 29 29 29 29 29 29 28 28 28 28 28 30 30 30 30 29 29 36 37 43 44 43 43 42 43 44 44 46 47 48 49 49 48 48 48 47 45 45 45 43 42 40 38 37 35 33 34 33 33 32 33 34 35 35 36 36 36 36 36 36 36 36 36 36 36 37 36 36 36 36 36 37 37 39 38 36 37 36 37 37
32 30 30 27 29 28 25 27 30 30 30 30 30 30 29 29 29 30 29 28 29 29 28 29 29 28 28 28 29 30 29 30 30 30 29 34 39 41 43 44 43 44 44 45 46 46 47 48 48 47 47 48 47 46 44 42 40 38 37 37 35 33 30 30 30 30 31 31 31 32 33 34 34 35 35 35 35 35 35 35 35 35 35 36 36 35 35 35 35 36 36 37 38 35 36 34 36
31 32 32 29 30 29 29 27 30 32 32 31 31 28 25 24 23 25 26 28 28 28 27 28 28 30 31 32 31 31 29 31 31 29 29 33 36 38 41 43 44 43 44 44 45 45 47 47 47 47 47 48 48 42 41 38 37 35 33 32 32 31 30 29 29 29 28 29 29 30 30 31 32 33 33 34 33 34 34 34 34 34 34 34 34 34 33 34 34 35 36 36 37 35 35 34 34
29 30 30 30 30 29 29 30 30 29 26 32 31 24 23 25 26 26 26 23 21 22 26 27 28 29 30 29 29 30 30 31 31 30 31 31 33 38 42 44 43 43 43 44 44 45 46 47 47 47 47 47 45 41 39 38 36 34 33 33 32 31 31 31 30 29 29 27 26 26 28 28 29 30 31 32 32 33 33 33 34 33 33 33 33 33 33 33 33 33 34 34 35 36 34 33 32
28 29 32 31 30 30 31 31 31 27 25 28 31 27 24 26 24 21 21 19 18 22 26 25 25 25 25 27 26 27 27 27 31 32 32 32 35 39 41 42 43 43 42 41 43 44 45 46 46 46 45 45 41 39 38 37 35 33 34 34 33 32 31 31 29 28 27 25 26 25 26 26 27 27 28 29 31 31 32 32 32 32 32 32 31 32 31 31 32 32 32 33 33 32 34 32 32
28 32 33 33 32 32 32 31 32 30 32 32 31 30 25 23 24 25 22 18 19 20 20 21 22 23 24 25 26 27 27 28 31 31 29 31 34 38 39 42 42 42 40 41 42 42 43 44 45 44 44 43 40 38 38 37 35 35 35 33 33 33 30 27 25 24 23 23 23 23 22 23 24 25 26 27 28 28 29 30 31 31 30 30 30 30 30 30 31 32 32 32 31 31 32 31 31
29 35 34 33 33 32 32 33 30 30 30 28 27 30 26 25 25 24 21 14 18 17 18 21 22 23 23 26 27 28 29 31 29 28 28 30 36 39 40 41 41 39 40 40 40 41 41 42 43 43 42 41 39 38 37 36 36 35 35 33 31 28 26 25 24 24 23 22 21 22 24 23 24 24 25 26 26 27 27 28 28 28 28 28 28 30 30 30 31 30 31 30 31 30 30 31 31
34 35 36 36 36 35 34 31 30 29 28 25 25 28 24 20 22 19 21 20 18 19 20 22 23 24 26 28 29 29 30 32 31 30 31 36 39 40 40 38 37 37 36 36 35 36 38 38 40 42 41 40 38 37 37 36 36 35 34 32 29 27 26 25 24 23 23 23 22 21 21 20 20 20 21 22 23 24 24 25 25 25 26 27 28 28 29 30 30 30 30 30 31 31 30 30 31
37 36 35 34 35 32 31 32 30 29 24 24 26 27 24 19 21 19 19 23 23 20 21 22 23 23 23 26 28 30 28 29 30 33 36 38 38 38 38 38 35 34 34 35 35 34 35 37 38 37 37 38 37 36 36 35 35 33 32 30 28 26 25 24 23 22 22 21 21 20 20 20 20 19 19 19 19 21 21 23 24 24 26 26 26 27 28 28 28 29 29 30 30 30 29 30 30
37 35 34 32 28 31 28 25 28 23 19 20 23 25 28 20 18 22 22 24 24 23 21 22 23 23 25 27 27 28 30 31 32 34 37 37 37 37 37 35 34 33 33 33 34 34 34 34 35 34 34 35 35 35 34 34 33 32 30 28 26 25 25 24 23 22 22 21 20 20 19 19 18 18 18 18 18 19 19 20 22 21 21 22 23 25 26 24 25 26 26 28 29 29 29 29 29
35 35 33 28 23 21 17 23 19 22 18 17 21 24 20 21 22 23 23 23 23 24 24 24 24 24 25 26 28 30 32 32 33 34 37 38 37 37 36 34 33 33 33 32 32 33 32 33 33 33 31 31 32 33 33 32 31 30 28 26 25 25 25 24 23 22 22 21 20 19 19 19 18 17 17 16 17 17 20 18 18 19 21 21 24 23 25 26 26 25 26 28 27 27 26 28 27
34 33 31 27 18 16 15 13 16 17 18 19 19 24 19 19 20 22 21 20 22 23 25 26 26 26 26 27 29 30 34 33 33 35 37 38 37 37 36 34 33 33 32 31 31 31 31 31 31 31 29 30 30 31 31 31 29 28 26 26 25 24 24 24 23 22 21 20 20 18 18 16 15 14 14 13 14 14 15 16 17 18 19 21 22 22 24 23 23 23 25 24 25 26 26 27 27
33 35 31 25 21 16 14 14 13 16 17 19 21 22 21 16 13 22 20 22 23 23 25 27 29 30 29 29 30 30 32 33 35 36 36 37 37 36 36 34 33 32 31 30 29 29 29 29 29 28 27 28 28 29 29 29 27 26 25 25 25 24 23 22 21 21 19 17 16 15 14 13 12 12 12 13 13 13 13 14 14 15 16 17 19 21 22 22 22 22 22 22 23 24 24 24 24
34 34 33 28 24 26 18 19 22 21 21 21 23 21 19 17 17 21 23 24 24 25 26 27 28 28 30 31 31 32 33 32 35 35 36 35 36 35 35 33 32 31 30 30 29 28 28 27 27 27 26 26 27 27 28 27 26 24 24 23 22 21 21 19 19 17 16 15 14 13 13 13 12 12 12 12 13 12 12 13 13 13 14 15 16 16 18 20 20 19 18 20 20 22 22 22 21
31 32 29 28 34 27 24 24 26 26 24 21 25 22 25 23 21 22 23 24 23 23 23 24 23 25 31 31 32 29 29 33 35 36 35 35 34 34 33 32 30 29 29 29 28 27 26 25 24 23 23 24 24 24 24 22 22 22 21 20 20 19 19 18 17 15 15 14 14 13 13 12 12 12 12 12 11 11 11 11 11 12 13 15 16 18 18 20 18 18 18 18 18 19 19 19 18
32 28 28 34 33 33 28 20 22 22 19 19 20 18 15 16 13 21 21 19 20 21 20 20 22 26 27 30 30 26 29 32 33 33 34 34 33 33 32 31 29 28 28 28 26 25 24 23 22 22 21 22 21 21 21 21 20 20 19 19 18 18 17 16 15 15 14 13 13 12 12 11 11 11 11 11 11 11 11 12 10 10 10 12 13 17 17 19 18 17 18 17 18 18 18 17 18
30 29 34 27 24 25 28 25 19 17 15 15 15 15 16 16 15 16 16 17 18 18 18 19 20 21 23 23 24 26 28 34 34 32 33 32 32 31 30 29 28 27 26 25 24 23 21 21 21 21 21 20 20 20 20 20 19 18 18 17 16 16 15 15 15 14 13 13 12 12 12 12 11 11 11 10 10 10 10 10 10 9 9 9 9 10 11 12 14 14 15 13 15 17 15 15 16
35 33 31 33 28 25 22 24 22 20 17 18 18 21 15 21 17 17 15 14 15 17 18 18 19 20 21 24 25 28 30 29 33 32 31 31 31 30 28 27 25 24 24 25 23 22 21 20 20 19 18 18 19 18 19 18 17 17 16 16 16 16 16 16 15 14 14 14 14 13 12 11 11 10 10 10 9 9 10 9 9 8 9 8 8 9 9 10 13 13 13 13 14 15 15 15 15
31 31 30 31 29 31 28 28 25 21 18 16 15 16 19 20 19 17 17 17 17 18 18 19 20 21 23 24 27 30 30 30 32 32 30 29 28 27 27 25 24 23 22 21 21 21 20 19 18 17 17 17 18 18 17 17 17 17 17 16 16 16 16 16 15 15 14 13 13 12 11 10 10 10 9 9 9 8 8 9 9 8 8 10 11 10 11 11 11 11 10 12 13 14 14 13 13
28 30 30 30 29 27 23 21 29 26 22 20 18 16 18 17 19 18 19 19 19 20 21 21 21 23 27 28 29 29 30 30 31 31 29 27 26 26 24 23 22 21 21 20 20 20 19 18 17 17 17 17 17 17 17 17 16 17 19 18 15 15 15 14 13 13 12 12 11 11 10 10 9 9 9 8 8 9 8 9 7 7 6 6 7 10 10 10 10 9 10 11 11 12 12 12 12